Coleman, TX

5:08 AM CDT on May 27, 2017 (GMT -0500)
Coleman Municipal

Weather History for KCOM - February, 2013

Change the Weather History Date:

Wednesday, February 20, 2013

  Actual Average (KABI) Record (KABI)
Temperature  
Mean Temperature 46 °F -  
Max Temperature 48 °F 59 °F 86 °F (1976)
Min Temperature 44 °F 37 °F 16 °F (1955)
Degree Days  
Heating Degree Days 19    
Moisture  
Dew Point 41 °F    
Average Humidity 81    
Maximum Humidity 95    
Minimum Humidity 64    
Precipitation  
Precipitation 0.03 in - - ()
Sea Level Pressure  
Sea Level Pressure 29.88 in    
Wind  
Wind Speed 10 mph (East)    
Max Wind Speed 20 mph    
Max Gust Speed 25 mph    
Visibility 8 miles    
Events Rain    
Averages and records for this station are not official NWS values.
T = Trace of Precipitation, MM = Missing Value Source: NWS Daily Summary

Daily Weather History Graph

Daily Weather History Graph

Search for Another Location

Airport or City:

Trip Planner

Search our weather history database for the weather conditions in past years. The results will help you decide how hot, cold, wet, or windy it might be!

Date:

Astronomy

Feb. 20, 2013 Rise Set
Actual Time 7:14 AM CST 6:28 PM CST
Civil Twilight 6:49 AM CST 6:53 PM CST
Nautical Twilight 6:21 AM CST 7:21 PM CST
Astronomical Twilight 5:52 AM CST 7:50 PM CST
Moon 2:01 PM CST (2/20) 3:25 AM CST (2/20)
Length of Visible Light 12h 03m
Length of Day
11h 14m
Waxing Gibbous, 76% of the Moon is Illuminated
Feb 20
Waxing Gibbous
Feb 25
Full
Mar 4
Last Quarter
Mar 11
New
Mar 19
First Quarter

Hourly Weather History & Observations

Time (CST) Temp. Windchill Dew Point Humidity Pressure Visibility Wind Dir Wind Speed Gust Speed Precip Events Conditions
12:15 AM 46.9 °F - 39.7 °F 76% 30.10 in 10.0 mi East 5.8 mph - 0.01 in Rain Light Rain
12:55 AM 46.8 °F - 40.1 °F 78% 30.08 in 10.0 mi ENE 5.8 mph - 0.01 in   Overcast
1:15 AM 46.4 °F 44.3 °F 40.5 °F 80% 30.09 in 10.0 mi NE 4.6 mph - N/A Rain Rain
1:35 AM 46.0 °F 43.1 °F 40.8 °F 82% 30.09 in 10.0 mi NE 5.8 mph - 0.02 in Rain Light Rain
1:55 AM 45.5 °F 41.3 °F 41.2 °F 85% 30.07 in 10.0 mi NE 8.1 mph - 0.02 in Rain Light Rain
2:15 AM 45.5 °F 41.3 °F 41.0 °F 84% 30.05 in 10.0 mi ENE 8.1 mph - N/A   Overcast
2:35 AM 45.1 °F 39.9 °F 40.6 °F 84% 30.03 in 10.0 mi ENE 10.4 mph - N/A   Overcast
2:55 AM 45.0 °F 41.2 °F 40.5 °F 84% 30.04 in 10.0 mi East 6.9 mph - N/A   Overcast
3:15 AM 45.1 °F 40.8 °F 40.5 °F 84% 30.03 in 10.0 mi East 8.1 mph - N/A   Overcast
3:35 AM 45.1 °F 38.1 °F 40.6 °F 84% 29.99 in 10.0 mi ESE 16.1 mph - N/A   Overcast
3:55 AM 45.0 °F 37.9 °F 40.3 °F 84% 29.94 in 10.0 mi ESE 16.1 mph 24.2 mph N/A   Scattered Clouds
4:15 AM 45.7 °F 41.5 °F 39.9 °F 80% 29.97 in 10.0 mi East 8.1 mph - N/A   Mostly Cloudy
4:35 AM 46.4 °F 41.5 °F 39.7 °F 78% 29.96 in 10.0 mi ESE 10.4 mph - N/A   Overcast
4:55 AM 46.8 °F - 39.6 °F 76% 29.95 in 10.0 mi ESE 9.2 mph - N/A   Overcast
5:15 AM 47.7 °F - 38.5 °F 70% 30.00 in 10.0 mi NW 5.8 mph - N/A   Overcast
5:35 AM 47.3 °F - 39.6 °F 74% 29.99 in 10.0 mi North 4.6 mph - N/A   Overcast
5:55 AM 46.9 °F - 39.9 °F 77% 29.97 in 10.0 mi ESE 8.1 mph - N/A   Overcast
6:15 AM 47.7 °F - 37.8 °F 69% 29.97 in 10.0 mi East 5.8 mph - N/A   Overcast
6:35 AM 48.4 °F - 38.1 °F 68% 29.99 in 10.0 mi Calm Calm - N/A   Overcast
6:55 AM 48.7 °F - 37.2 °F 64% 29.99 in 10.0 mi SE 9.2 mph - N/A   Overcast
7:15 AM 48.0 °F - 38.7 °F 70% 29.99 in 10.0 mi East 5.8 mph - N/A   Overcast
7:55 AM 46.9 °F - 39.9 °F 77% 30.00 in 10.0 mi East 6.9 mph - N/A   Overcast
8:15 AM 47.5 °F - 39.0 °F 72% 29.99 in 10.0 mi East 9.2 mph - N/A   Overcast
8:35 AM 47.7 °F - 39.0 °F 72% 30.00 in 10.0 mi East 5.8 mph - N/A   Overcast
8:55 AM 47.8 °F - 38.7 °F 70% 30.00 in 10.0 mi East 9.2 mph - N/A   Overcast
9:15 AM 47.8 °F - 37.9 °F 69% 29.98 in 10.0 mi ESE 13.8 mph - N/A   Overcast
9:35 AM 47.8 °F - 38.5 °F 70% 29.96 in 10.0 mi ESE 16.1 mph - N/A   Overcast
9:55 AM 48.0 °F - 39.0 °F 71% 29.96 in 10.0 mi ESE 16.1 mph 20.7 mph N/A   Overcast
10:15 AM 48.2 °F - 39.6 °F 72% 29.96 in 10.0 mi SE 15.0 mph 21.9 mph N/A   Overcast
10:55 AM 48.2 °F - 39.4 °F 72% 29.95 in 10.0 mi ESE 17.3 mph 24.2 mph N/A   Overcast
11:15 AM 48.2 °F - 39.7 °F 73% 29.95 in 10.0 mi SE 19.6 mph 25.3 mph N/A   Overcast
11:35 AM 48.0 °F - 40.1 °F 74% 29.94 in 10.0 mi ESE 16.1 mph 21.9 mph N/A   Overcast
11:55 AM 47.7 °F - 40.1 °F 75% 29.93 in 10.0 mi ESE 17.3 mph - N/A   Overcast
12:15 PM 47.7 °F - 40.3 °F 76% 29.92 in 10.0 mi ESE 13.8 mph 23.0 mph N/A   Overcast
12:35 PM 47.7 °F - 40.6 °F 77% 29.91 in 10.0 mi ESE 17.3 mph 21.9 mph N/A   Overcast
12:55 PM 47.7 °F - 41.0 °F 78% 29.89 in 10.0 mi ESE 13.8 mph 20.7 mph N/A   Overcast
1:15 PM 47.3 °F - 41.0 °F 79% 29.88 in 10.0 mi ESE 15.0 mph 20.7 mph N/A   Overcast
1:35 PM 46.8 °F - 40.6 °F 79% 29.87 in 10.0 mi East 15.0 mph - N/A   Overcast
1:55 PM 46.8 °F - 40.5 °F 79% 29.86 in 10.0 mi ESE 17.3 mph - N/A   Overcast
2:15 PM 46.6 °F - 40.6 °F 80% 29.85 in 10.0 mi East 16.1 mph 21.9 mph N/A   Overcast
2:35 PM 46.4 °F 40.1 °F 40.6 °F 80% 29.83 in 10.0 mi ESE 15.0 mph - N/A   Overcast
2:55 PM 46.4 °F 41.9 °F 41.5 °F 83% 29.83 in 7.0 mi ESE 9.2 mph - N/A   Overcast
3:15 PM 46.6 °F - 41.4 °F 82% 29.81 in 10.0 mi ESE 17.3 mph 20.7 mph N/A   Overcast
3:35 PM 46.8 °F - 41.2 °F 81% 29.80 in 10.0 mi ESE 16.1 mph 21.9 mph N/A   Overcast
3:55 PM 47.1 °F - 41.2 °F 80% 29.78 in 10.0 mi ESE 17.3 mph 20.7 mph N/A   Overcast
4:15 PM 47.3 °F - 41.2 °F 79% 29.78 in 10.0 mi ESE 18.4 mph - N/A   Overcast
4:35 PM 47.5 °F - 41.2 °F 79% 29.77 in 10.0 mi ESE 15.0 mph 21.9 mph N/A   Overcast
4:55 PM 47.7 °F - 41.7 °F 80% 29.77 in 10.0 mi ESE 15.0 mph 18.4 mph N/A   Overcast
5:15 PM 47.7 °F - 42.6 °F 83% 29.77 in 10.0 mi ESE 16.1 mph 20.7 mph N/A   Overcast
5:35 PM 47.7 °F - 43.2 °F 84% 29.76 in 7.0 mi ESE 16.1 mph - N/A   Overcast
5:55 PM 47.3 °F - 43.5 °F 87% 29.75 in 4.0 mi ESE 12.7 mph - N/A   Overcast
6:15 PM 47.1 °F - 44.4 °F 90% 29.74 in 3.0 mi ESE 15.0 mph - N/A   Overcast
6:35 PM 46.9 °F - 45.0 °F 93% 29.74 in 2.5 mi East 13.8 mph - N/A   Overcast
6:55 PM 46.4 °F 39.8 °F 44.4 °F 93% 29.73 in 3.0 mi East 16.1 mph - N/A   Overcast
7:15 PM 45.7 °F 38.6 °F 43.9 °F 93% 29.72 in 3.0 mi East 17.3 mph 24.2 mph N/A   Overcast
7:35 PM 45.5 °F 39.6 °F 43.7 °F 93% 29.72 in 3.0 mi East 12.7 mph 20.7 mph N/A   Overcast
7:55 PM 45.5 °F 39.2 °F 43.7 °F 93% 29.72 in 2.5 mi East 13.8 mph - N/A   Overcast
8:15 PM 45.3 °F 38.7 °F 43.5 °F 93% 29.71 in 3.0 mi East 15.0 mph - N/A   Overcast
8:35 PM 45.5 °F 38.6 °F 42.8 °F 90% 29.71 in 7.0 mi East 16.1 mph - N/A   Overcast
8:55 PM 45.3 °F 38.4 °F 42.6 °F 90% 29.70 in 4.0 mi East 16.1 mph - N/A   Overcast
9:15 PM 44.6 °F 38.4 °F 42.4 °F 92% 29.69 in 2.5 mi East 12.7 mph - N/A   Overcast
9:35 PM 44.6 °F 38.4 °F 42.8 °F 93% 29.68 in 2.5 mi East 12.7 mph - N/A   Unknown
9:55 PM 45.1 °F 39.1 °F 43.5 °F 94% 29.67 in 2.0 mi East 12.7 mph - N/A   Unknown
10:15 PM 45.7 °F 40.2 °F 44.1 °F 94% 29.67 in 2.0 mi ESE 11.5 mph 18.4 mph N/A Rain Light Rain
10:55 PM 45.9 °F 39.7 °F 44.6 °F 95% 29.66 in 2.0 mi ESE 13.8 mph 19.6 mph N/A Rain Light Rain
11:15 PM 45.9 °F 39.4 °F 44.6 °F 95% 29.67 in 2.0 mi ESE 15.0 mph - N/A Rain Light Rain
11:35 PM 46.0 °F 41.4 °F 44.6 °F 95% 29.68 in 2.5 mi ESE 9.2 mph - N/A Rain Light Rain
11:55 PM 46.2 °F 41.2 °F 44.8 °F 95% 29.67 in 2.5 mi ESE 10.4 mph - N/A Rain Light Rain